CAPE
520 1030 1617 807 525 374 354 488 495 431 402 371 171 25 8 2 0 0 0 1 30 8 60 60 79 84 75 60 42 8 0 0 0 0 0 0 0 0 0 0 0 3 0
781 995 1431 1079 586 377 189 86 63 190 367 256 142 34 10 3 0 0 0 1 33 18 46 91 87 83 64 52 33 0 0 0 0 0 0 0 0 0 0 0 0 0 0
1083 1060 953 1179 965 496 78 35 7 0 19 65 53 43 35 8 0 0 0 0 13 10 3 12 25 13 5 0 0 0 0 0 0 0 0 0 0 0 0 0 0 13 0
1048 922 822 1209 1012 316 51 36 6 0 0 186 75 15 10 5 1 0 0 0 0 3 0 0 0 0 0 0 0 0 0 0 0 11 0 0 0 0 0 0 0 1 23
905 849 945 1252 867 352 100 43 0 0 120 111 18 1 6 2 3 0 0 0 0 0 0 0 0 0 0 0 0 0 0 0 7 8 0 0 0 9 2 0 0 0 0
746 879 1200 1206 952 648 434 119 67 86 135 46 10 0 10 4 5 1 0 0 0 0 2 0 0 0 0 0 0 0 0 0 21 4 2 31 13 33 49 46 60 61 29
774 973 1109 1346 1107 788 479 327 123 257 288 61 12 0 0 0 3 3 0 0 0 0 2 3 3 0 0 0 0 0 9 26 1 4 12 29 40 28 53 79 61 81 114
913 968 1019 1221 1069 782 460 300 150 377 293 80 54 7 1 0 5 12 0 0 0 0 0 2 1 0 4 16 27 16 12 4 1 1 0 9 41 18 41 41 103 155 180
876 853 905 846 735 657 498 321 246 546 387 152 213 82 29 70 169 52 0 0 0 0 1 0 0 35 2 0 0 0 0 0 0 0 0 0 28 6 15 47 72 39 59
861 785 696 723 637 466 345 374 286 292 357 359 367 63 26 160 308 272 85 13 0 7 24 43 44 0 0 0 0 0 0 0 0 0 0 0 0 7 19 1 5 54 22
1019 816 713 669 525 373 280 205 268 281 253 192 148 3 52 51 64 40 12 62 103 36 26 1 4 0 0 0 0 0 0 0 0 0 0 0 5 29 6 0 26 19 22
833 802 800 726 601 428 461 235 112 61 28 24 16 0 0 3 5 7 21 31 124 81 0 0 0 0 0 0 0 0 0 0 0 0 0 0 0 20 4 0 16 7 2
212 921 1048 924 788 560 470 181 75 25 0 0 0 0 0 0 0 0 0 3 0 0 0 0 0 0 0 0 0 0 0 0 0 0 0 0 1 10 2 1 10 0 0
309 201 1193 1074 1008 697 409 162 114 58 0 0 0 0 0 0 0 0 0 0 0 0 0 0 0 0 0 0 0 0 0 0 0 0 0 0 0 0 0 0 0 0 0
291 306 279 1018 913 505 477 306 189 135 72 0 0 0 0 0 0 0 0 0 0 0 0 0 0 0 0 0 0 0 0 0 0 0 0 0 0 0 0 0 0 0 0
145 327 512 350 837 616 606 454 291 258 157 19 0 0 0 0 0 0 0 0 0 0 0 0 0 0 0 0 0 0 0 0 0 0 0 0 0 0 0 0 0 0 0
0 203 594 599 816 746 661 502 382 366 223 109 27 0 0 0 0 0 0 0 0 0 0 0 0 0 0 0 0 0 0 0 0 0 0 0 0 0 0 0 0 0 0
0 0 517 899 902 915 820 576 619 563 246 87 84 24 0 0 0 0 0 0 0 0 0 0 0 0 0 0 0 0 0 0 0 0 0 0 0 0 0 0 0 0 0
0 0 92 712 1088 1029 1063 914 830 487 204 89 71 17 2 0 0 0 0 0 0 0 0 0 0 0 0 0 0 0 0 0 0 0 0 0 0 0 0 0 0 0 0
0 0 0 315 976 1284 1175 1049 792 218 424 258 134 21 0 0 0 0 0 0 0 0 0 0 0 0 0 0 0 0 0 0 0 0 0 0 0 0 0 0 0 0 0
0 0 0 0 625 1172 1204 1046 1021 529 477 412 285 2 0 0 0 0 0 0 0 0 0 0 0 0 0 0 0 0 0 0 0 0 0 0 0 0 0 0 0 0 0
0 0 0 0 3 775 1095 1150 796 199 193 298 75 0 0 0 0 0 0 0 0 0 0 0 0 0 0 0 0 0 0 0 0 0 0 0 0 0 0 0 0 0 0
0 0 0 0 0 0 183 182 0 0 0 0 0 0 0 0 0 0 0 0 0 0 0 0 0 0 0 0 0 0 0 0 0 0 0 0 0 0 0 0 0 0 0
0 0 0 0 0 0 0 18 215 264 141 0 0 0 0 0 0 0 0 0 0 0 0 0 0 0 0 0 0 0 0 0 0 0 0 0 0 0 0 0 0 0 0
0 0 0 0 0 0 0 1 200 245 0 0 0 0 0 0 0 0 0 0 0 0 0 0 0 0 0 0 0 0 0 0 0 0 0 0 0 0 0 0 0 0 0
0 0 0 0 0 0 0 4 133 0 0 0 0 0 0 0 0 0 0 0 0 0 0 0 0 0 0 0 0 0 0 0 0 0 0 0 0 0 0 0 0 0 0
CIN
-244 -149 -88 -160 -192 -205 -178 -123 -96 -82 -69 -61 -95 0 0 0 0 0 0 0 0 0 0 -1 0 0 0 -3 -20 -18 0 0 0 0 0 0 0 0 0 0 0 -2 0
-209 -126 -91 -132 -189 -205 -230 -248 -228 -143 -79 -74 -111 0 0 0 0 0 0 0 0 0 0 0 0 0 -3 -14 -24 -2 0 0 0 0 0 0 0 0 0 0 0 0 0
-150 -122 -142 -114 -126 -178 -264 -305 -157 0 -164 -136 -52 0 0 0 0 0 0 0 0 0 -8 -36 -41 -44 -45 0 0 0 0 0 0 0 -2 0 0 0 0 0 0 0 0
-164 -151 -165 -112 -126 -230 -311 -311 -129 0 0 -129 -86 0 0 0 0 0 0 0 0 0 0 0 0 0 0 0 0 0 0 0 0 -26 0 0 0 0 0 0 0 0 -2
-193 -161 -146 -112 -141 -226 -286 -327 0 0 -172 -165 0 0 0 0 0 0 0 0 0 0 0 0 0 0 0 0 0 0 0 0 -31 -47 -21 0 0 -10 -2 0 0 0 0
-226 -168 -116 -112 -138 -168 -191 -263 -255 -203 -168 -188 -61 0 0 0 0 0 0 0 0 0 0 0 0 0 0 0 0 0 0 0 -35 -68 -63 -38 -42 -8 -182 -157 -146 -167 -219
-232 -172 -125 -103 -122 -151 -186 -207 -238 -176 -149 -199 -111 0 0 0 0 0 0 0 0 0 0 0 0 0 0 0 0 0 -25 -34 -15 -58 -50 -46 -20 -4 -108 -122 -165 -165 -118
-230 -176 -153 -108 -117 -147 -193 -239 -249 -160 -163 -199 -201 -115 -24 0 0 0 0 0 0 0 0 0 0 0 -1 -4 -9 -15 -16 -19 -36 -16 0 -66 -20 -1 -139 -201 -130 -98 -89
-234 -197 -158 -158 -168 -171 -191 -241 -238 -127 -150 -189 -153 -181 -200 -164 -98 -128 0 0 0 0 0 0 0 -89 -2 0 0 0 0 0 0 0 0 0 -10 -1 0 -196 -205 -265 -219
-199 -207 -214 -187 -187 -223 -252 -232 -240 -207 -170 -151 -129 -225 -281 -138 -83 -71 -108 -148 -7 -131 -107 -75 -92 0 0 0 0 0 0 0 0 0 0 0 0 -4 0 0 0 -270 -263
-156 -191 -207 -197 -212 -259 -284 -303 -262 -231 -224 -223 -223 -276 -250 -232 -203 -205 -258 -127 -90 -107 -130 -61 -157 0 0 0 0 0 0 0 0 0 0 0 0 0 0 0 0 0 0
-188 -185 -185 -182 -198 -236 -211 -301 -356 -368 -381 -371 -372 0 0 -59 -123 -110 -246 -190 -96 -112 0 0 0 0 0 0 0 0 0 0 0 0 0 0 0 0 0 0 0 0 0
-184 -158 -137 -149 -170 -238 -243 -343 -408 -439 0 0 0 0 0 0 0 0 0 -32 0 0 0 0 0 0 0 0 0 0 0 0 0 0 0 0 0 0 0 0 0 0 0
-166 -188 -123 -113 -119 -210 -316 -375 -389 -419 0 0 0 0 0 0 0 0 0 0 0 0 0 0 0 0 0 0 0 0 0 0 0 0 0 0 0 0 0 0 0 0 0
-143 -159 -177 -105 -145 -258 -297 -306 -338 -353 -400 0 0 0 0 0 0 0 0 0 0 0 0 0 0 0 0 0 0 0 0 0 0 0 0 0 0 0 0 0 0 0 0
-137 -129 -124 -160 -141 -220 -229 -236 -293 -280 -323 -449 0 0 0 0 0 0 0 0 0 0 0 0 0 0 0 0 0 0 0 0 0 0 0 0 0 0 0 0 0 0 0
0 -127 -106 -130 -121 -192 -222 -199 -201 -221 -250 -314 -387 0 0 0 0 0 0 0 0 0 0 0 0 0 0 0 0 0 0 0 0 0 0 0 0 0 0 0 0 0 0
0 0 -106 -70 -123 -137 -171 -223 -142 -140 -215 -331 -282 -378 0 0 0 0 0 0 0 0 0 0 0 0 0 0 0 0 0 0 0 0 0 0 0 0 0 0 0 0 0
0 0 -73 -82 -95 -121 -135 -141 -102 -140 -196 -330 -272 -372 -382 0 0 0 0 0 0 0 0 0 0 0 0 0 0 0 0 0 0 0 0 0 0 0 0 0 0 0 0
0 0 0 -111 -101 -82 -79 -104 -140 -212 -113 -170 -193 -314 0 0 0 0 0 0 0 0 0 0 0 0 0 0 0 0 0 0 0 0 0 0 0 0 0 0 0 0 0
0 0 0 0 -109 -98 -80 -75 -80 -114 -116 -119 -144 -18 0 0 0 0 0 0 0 0 0 0 0 0 0 0 0 0 0 0 0 0 0 0 0 0 0 0 0 0 0
0 0 0 0 -100 -116 -83 -70 -136 -262 -246 -155 -258 0 0 0 0 0 0 0 0 0 0 0 0 0 0 0 0 0 0 0 0 0 0 0 0 0 0 0 0 0 0
0 0 0 0 0 0 -48 -161 0 0 0 0 0 0 0 0 0 0 0 0 0 0 0 0 0 0 0 0 0 0 0 0 0 0 0 0 0 0 0 0 0 0 0
0 0 0 0 0 0 0 -162 -253 -187 -222 0 0 0 0 0 0 0 0 0 0 0 0 0 0 0 0 0 0 0 0 0 0 0 0 0 0 0 0 0 0 0 0
0 0 0 0 0 0 0 -96 -261 -200 0 0 0 0 0 0 0 0 0 0 0 0 0 0 0 0 0 0 0 0 0 0 0 0 0 0 0 0 0 0 0 0 0
0 0 0 0 0 0 0 -219 -257 0 0 0 0 0 0 0 0 0 0 0 0 0 0 0 0 0 0 0 0 0 0 0 0 0 0 0 0 0 0 0 0 0 0
Wind_Speed
5 12 18 18 18 17 16 15 15 14 14 14 16 15 15 14 14 13 12 11 11 12 13 12 12 15 16 16 15 12 10 9 7 6 6 6 7 9 8 8 6 4 5
13 13 18 17 18 17 16 15 14 12 13 13 14 15 14 14 13 13 12 10 11 12 12 15 16 16 16 14 14 9 8 6 4 4 4 1 2 6 7 6 6 3 3
14 13 14 17 17 17 16 15 14 13 12 13 14 15 14 13 13 13 12 11 11 12 12 12 14 13 13 12 10 8 6 5 4 6 4 3 2 4 5 4 4 4 1
16 12 13 18 18 19 17 16 14 13 13 14 16 15 14 13 13 13 13 12 12 12 12 12 12 12 11 11 9 8 6 4 4 5 4 5 4 5 6 3 3 5 5
16 12 13 19 19 19 18 16 15 15 16 16 14 12 14 14 14 14 13 13 13 12 12 12 11 11 10 8 7 6 4 3 5 4 3 5 4 5 5 4 3 3 3
16 14 16 19 19 18 16 16 16 16 17 16 14 14 15 15 14 13 13 13 12 12 11 11 10 9 8 7 6 4 3 4 5 5 5 6 5 6 4 3 2 2 3
16 15 15 20 19 18 17 15 15 16 18 16 16 16 14 13 12 13 13 12 11 10 10 9 9 8 7 6 5 3 4 6 5 4 3 4 4 7 8 7 8 9 8
16 15 15 19 19 18 17 16 15 15 17 15 13 13 13 11 10 14 12 12 11 10 9 8 8 7 5 4 3 2 4 6 6 3 4 4 7 6 8 9 9 11 13
15 13 11 12 15 17 16 16 15 15 15 14 13 12 9 8 10 15 12 12 10 9 8 8 7 7 7 5 3 1 5 5 4 4 5 3 6 8 8 10 11 11 13
13 13 10 8 10 9 9 14 14 14 12 11 12 11 8 7 12 14 12 10 9 9 8 8 8 7 6 4 2 4 6 9 6 4 3 3 7 9 11 10 8 12 12
11 12 12 10 7 7 6 8 11 12 11 12 11 11 6 4 7 10 8 10 9 9 8 7 7 7 5 2 3 6 7 4 5 3 3 8 10 12 10 9 12 12 12
13 12 13 13 12 10 8 6 6 7 5 5 5 6 5 5 5 7 7 10 9 9 7 6 6 5 4 1 2 5 3 5 4 3 3 6 6 11 10 10 11 12 11
10 11 13 13 13 13 9 6 3 3 3 4 6 6 5 4 4 4 3 3 3 5 2 3 2 2 4 3 3 4 4 5 3 3 5 11 9 10 9 10 11 11 11
11 13 16 14 13 13 10 8 7 6 5 4 6 7 4 3 7 5 4 5 4 3 3 3 2 4 4 5 4 5 5 4 3 2 4 11 10 10 9 10 10 9 10
11 12 16 16 13 10 11 9 9 8 7 8 8 9 6 7 7 6 5 4 4 4 3 3 3 4 4 4 4 4 5 5 5 3 2 11 10 9 9 9 8 9 9
13 13 13 14 16 13 10 11 9 9 9 8 8 9 9 8 5 4 5 5 4 4 4 4 4 4 3 3 4 3 4 5 5 5 3 4 9 9 8 8 8 8 9
7 13 16 14 18 17 14 12 9 9 10 10 9 11 10 8 6 8 6 5 4 4 6 4 4 4 4 3 4 2 2 4 5 6 4 3 4 7 7 6 7 8 8
8 9 15 14 18 18 14 11 9 9 10 8 9 9 10 8 11 8 6 5 5 4 4 4 3 4 4 3 2 2 1 2 4 6 5 4 3 3 4 4 6 7 7
9 9 13 16 17 18 15 12 11 8 8 7 7 8 9 11 10 9 6 5 6 5 4 4 3 3 2 2 2 1 1 2 2 4 6 6 6 5 3 3 2 7 8
14 9 9 12 17 18 13 11 6 5 7 10 8 9 11 10 10 8 5 7 5 5 5 4 4 4 2 1 2 2 1 1 3 3 4 3 3 4 4 2 3 2 6
9 9 10 10 16 13 11 10 9 7 8 8 8 11 12 10 11 10 7 6 5 6 6 6 4 4 3 3 2 3 2 2 1 2 3 3 4 4 3 4 2 1 1
9 9 7 8 10 15 13 12 5 5 3 5 7 10 10 12 10 11 10 7 7 6 6 6 5 3 2 3 3 2 2 4 4 2 0 2 3 2 3 3 2 1 1
9 9 9 8 9 10 12 6 4 7 3 3 3 7 8 10 9 11 10 9 7 6 6 5 5 6 4 1 3 4 2 3 2 3 2 1 3 1 2 3 3 3 3
9 8 9 9 9 9 10 9 15 13 10 5 6 5 7 10 11 10 9 9 8 5 6 5 4 4 5 4 1 2 3 4 3 3 3 3 2 3 3 3 4 4 4
9 9 9 10 10 10 13 12 12 11 6 6 5 10 8 5 8 11 9 10 10 7 6 7 5 6 2 4 3 2 2 1 2 3 4 4 4 3 4 3 4 4 6
2 4 7 8 9 8 14 13 16 15 13 11 9 8 7 6 7 10 10 9 10 8 8 7 6 6 5 4 3 3 3 3 2 2 2 3 4 4 2 4 4 4 4
Wind_Direction
155 150 144 141 136 129 125 121 118 117 116 121 119 117 113 104 96 87 86 92 91 86 75 87 92 109 106 97 90 85 80 72 63 64 66 63 75 81 78 51 58 34 71
140 149 144 141 136 129 125 120 116 114 123 127 125 121 115 106 98 90 90 98 100 96 89 84 94 93 95 95 90 83 74 67 46 52 62 85 34 64 72 59 58 64 68
136 147 144 140 134 129 126 123 122 125 129 138 136 125 122 115 107 101 99 101 108 104 96 95 96 94 92 88 87 84 80 60 30 8 355 144 172 61 60 51 29 28 160
138 147 147 143 137 134 133 132 132 135 136 139 130 130 127 120 111 103 104 106 109 110 104 98 96 96 95 96 95 93 83 54 2 349 352 136 129 66 55 43 26 17 7
140 147 150 146 141 140 140 136 137 139 138 132 133 134 135 126 118 109 108 107 107 107 104 99 97 94 95 96 84 101 70 22 340 334 341 126 120 76 55 44 25 358 348
146 147 153 150 145 143 143 140 142 144 148 137 131 136 135 133 125 119 117 116 112 108 103 99 96 95 95 90 89 74 36 353 339 324 152 131 125 82 57 8 355 326 296
146 151 155 154 149 147 149 145 148 148 147 145 144 143 144 144 140 134 129 126 120 113 106 103 103 102 99 96 85 49 344 340 338 357 72 97 84 50 34 54 41 45 35
146 155 159 155 152 150 152 148 152 155 148 148 146 150 149 155 155 148 141 136 131 125 120 113 111 109 102 89 73 29 345 346 2 12 75 74 62 63 61 59 55 57 53
140 146 151 155 153 154 155 152 154 157 155 150 144 142 150 168 171 153 148 143 137 130 123 121 128 118 111 104 98 18 359 344 54 75 74 37 55 71 69 60 58 53 56
148 152 147 146 150 152 159 155 157 156 152 149 141 143 149 149 153 148 150 148 141 136 129 118 121 127 123 117 107 37 13 45 99 81 59 45 64 82 74 61 62 68 63
157 159 152 148 149 149 152 161 158 154 157 153 148 154 142 130 131 138 149 145 146 146 141 139 142 134 119 86 357 39 62 68 91 69 60 45 75 89 70 62 72 63 61
161 167 162 162 163 161 164 152 153 154 159 154 159 169 161 158 148 148 149 155 154 151 151 155 145 139 128 111 27 51 58 64 88 71 57 68 88 91 69 66 75 64 54
167 169 172 173 172 166 158 159 158 155 159 172 171 187 173 167 154 143 149 146 150 152 169 128 113 125 123 110 83 59 41 73 91 70 68 72 82 81 71 67 69 62 55
185 173 177 178 177 175 159 164 169 169 177 182 184 193 153 158 159 165 159 165 167 172 174 155 155 111 89 75 73 71 60 80 106 83 74 84 87 89 76 69 65 58 52
195 189 175 175 175 172 162 169 169 182 188 189 181 195 160 172 177 167 161 164 164 160 149 123 122 98 82 76 71 83 68 88 127 108 81 94 95 93 82 73 64 53 45
192 190 188 167 170 170 173 180 171 185 194 185 180 191 174 180 174 147 146 149 153 141 130 133 123 105 87 81 58 72 97 86 124 128 114 100 113 106 91 73 57 40 31
210 191 185 175 171 173 179 182 184 190 193 188 184 179 175 176 148 145 145 144 157 134 122 112 93 85 70 42 55 43 112 120 108 143 134 116 108 103 96 75 39 21 18
229 188 190 187 171 176 181 186 192 192 187 175 177 178 173 155 147 147 145 151 146 125 126 114 108 78 75 54 2 1 61 90 119 133 143 144 131 110 101 79 38 17 8
215 216 197 191 182 176 181 185 198 187 185 163 167 170 161 150 152 146 148 148 142 131 133 126 75 107 71 18 320 27 160 130 148 130 142 154 159 148 155 173 29 27 12
234 213 193 201 189 187 183 179 186 167 183 174 170 175 157 153 146 134 134 143 140 131 129 119 113 60 98 358 330 355 259 110 117 147 159 165 154 153 150 140 70 19 14
228 217 200 186 192 184 187 186 189 176 185 177 180 160 155 155 150 143 145 143 150 142 151 140 119 113 34 5 57 2 1 352 100 189 168 152 162 176 171 127 152 196 350
225 217 223 198 200 191 186 188 173 167 157 176 162 148 151 153 156 144 151 156 154 134 143 142 134 120 99 23 124 97 30 337 340 330 22 162 152 145 142 164 245 280 161
236 225 218 202 200 206 192 149 91 88 77 88 146 148 152 150 157 146 153 153 145 135 152 148 143 140 142 39 77 145 103 216 321 333 4 62 37 40 3 347 335 311 255
242 246 225 209 191 206 184 170 168 173 170 177 161 152 142 156 149 142 147 144 140 133 140 143 142 138 130 148 83 54 88 142 154 329 328 315 36 37 351 323 333 333 298
216 212 226 237 211 189 207 179 173 173 146 123 129 136 143 151 151 135 154 147 144 143 143 138 140 130 133 135 143 138 81 50 85 131 265 305 343 326 325 340 313 313 319
307 257 234 230 235 209 195 180 181 154 144 139 150 151 158 155 150 147 154 151 141 147 149 146 136 121 122 115 121 125 152 159 181 154 229 273 254 276 299 297 302 335 339